SCP
0 0 0 0 0 0 0 0 0 0 0 0 0 0 0 0 0 0 -0 -0 0 0 0 0 0 0 0 0 0 0 0 0 0 -0 -0 0 -0 -0 -0 -0 0 0 0 0
0 0 0 0 0 0 0 0 0 0 0 0 0 0 0 0 0 0 0 0 0 0 -0 -0 -0 -0 -0 -0 -0 0 0 0 0 0 0 0 -0 -0 -0 0 0 0 0 0
0 0 0 0 0 0 0 0 0 0 0 0 0 0 0 0 0 0 0 0 0 0 0 -0 -0 -0 -0 -0 -0 -0 0 0 0 0 0 0 0 0 0 -0 -0 -0 0 0
0 0 0 0 0 0 0 0 0 0 0 0 0 0 0 0 0 0 0 0 0 0 0 0 0 -0 -0 -0 0 0 0 0 0 0 0 0 0 0 0 0 0 -0 -0 0
0 0 0 0 0 0 0 0 0 0 0 0 0 0 0 0 0 0 0 0 0 0 0 0 0 0 0 0 -0 -0 -0 -0 -0 0 0 0 0 0 0 0 0 0 0 0
0 0 0 0 0 0 0 0 0 0 0 0 0 0 0 0 0 0 0 0 0 0 0 0 0 0 0 0 0 0 0 0 0 0 0 0 0 0 0 0 0 0 0 0
0 0 0 0 0 0 0 0 0 0 0 0 0 0 0 0 0 0 0 0 0 0 0 0 0 0 0 0 0 0 0 0 0 0 0 0 0 0 0 0 0 0 0 0
0 0 0 0 0 0 0 0 0 0 0 0 0 0 0 0 0 0 0 0 0 0 0 0 0 0 0 0 0 0 0 0 0 0 0 0 0 0 0 0 0 0 0 0
0 0 0 0 0 0 0 0 0 0 0 0 0 0 0 0 0 0 0 0 0 0 0 0 0 0 0 0 0 0 0 0 0 0 0 0 0 0 0 0 0 0 0 0
0 0 0 0 0 0 0 0 0 0 0 0 0 0 0 0 0 0 0 0 0 0 0 0 0 0 0 0 0 0 0 0 0 0 0 0 0 0 0 0 0 0 0 0
0 0 0 0 0 0 0 0 0 0 0 0 0 0 0 0 0 0 0 0 0 0 0 0 0 0 0 0 0 0 0 0 0 0 0 0 0 0 0 0 0 0 0 0
0 0 0 0 0 0 0 0 0 0 0 0 0 0 0 0 0 0 0 0 0 0 0 0 0 0 0 0 0 0 0 0 0 0 0 0 0 0 0 0 0 0 0 0
0 0 0 0 0 0 0 0 0 0 0 0 0 0 0 0 0 0 0 0 0 0 0 0 0 0 0 0 0 0 0 0 0 0 0 0 0 0 0 0 0 0 0 0
0 0 0 0 0 0 0 0 0 0 0 0 0 0 0 0 0 0 0 0 0 0 0 0 0 0 0 0 0 0 0 0 0 0 0 0 0 0 0 0 0 0 0 0
0 0 0 0 0 0 0 0 0 0 0 0 0 0 0 0 0 0 0 0 0 0 0 0 0 0 0 0 0 0 0 0 0 0 0 0 0 0 0 0 0 0 0 0
0 0 0 0 0 0 0 0 0 0 0 0 0 0 0 0 0 0 0 0 0 0 0 0 0 0 0 0 0 0 0 0 0 0 0 0 0 0 0 0 0 0 0 0
0 0 0 0 0 0 0 0 0 0 0 0 0 0 0 0 0 0 0 0 0 0 0 0 -0 -0 0 0 0 0 0 0 0 0 0 0 0 0 0 0 0 0 0 0
0 0 0 0 0 0 0 0 0 0 0 0 0 0 0 0 0 0 0 0 0 -0 -0 -0 -0 -0 -0 0 0 0 0 0 0 0 0 0 0 0 0 0 0 0 0 0
0 0 0 0 0 0 0 0 0 0 0 0 0 0 0 0 0 0 0 0 -0 -0 -0 -0 -0 -0 -0 0 -0 0 0 0 0 0 0 0 0 0 0 0 0 0 0 0
0 0 0 0 0 0 0 0 0 0 0 0 0 0 0 0 0 0 0 -0 -0 -0 -0 -0 -0 -0 -0 -0 -0 0 0 0 0 0 0 0 0 0 0 0 0 0 0 0
0 0 0 0 0 0 0 0 0 0 0 0 0 0 0 0 0 0 0 -0 0 0 0 0 -0 -0 -0 -0 0 0 0 0 0 0 0 0 0 0 0 0 0 0 0 0
0 0 0 0 0 0 0 0 0 0 0 0 0 0 0 0 0 0 0 -0 0 0 0 0 0 -0 0 0 0 0 0 0 0 0 0 0 0 0 0 0 0 0 0 0
0 0 0 0 0 0 0 0 0 0 0 0 0 0 0 0 0 0 0 0 0 0 0 0 0 0 0 0 0 0 0 0 0 0 0 0 0 0 0 0 0 0 0 0
0 0 0 0 0 0 0 0 0 0 0 0 0 0 0 0 0 0 0 0 0 0 0 0 0 0 0 0 0 0 0 0 0 0 0 0 0 0 0 0 0 0 0 0
0 0 0 0 0 0 0 0 0 0 0 0 0 0 0 0 0 0 0 0 0 0 0 0 0 0 0 0 0 0 0 0 0 0 0 0 0 0 0 0 0 0 0 -0
0 0 0 0 0 0 0 0 0 0 0 0 0 0 0 0 0 0 0 0 0 0 0 0 0 0 0 0 0 0 0 0 0 0 0 0 0 0 0 0 0 0 0 0
0 0 0 0 0 0 0 0 0 0 0 0 0 0 0 0 0 0 0 0 0 0 0 0 0 0 0 0 0 0 0 0 0 0 0 0 0 0 0 0 0 0 0 0
Wind_Speed_500mb
37 43 39 37 39 48 47 46 46 48 46 47 46 33 17 6 5 14 17 16 13 14 20 23 27 33 38 39 42 47 53 58 63 65 65 66 68 66 61 57 59 61 61 60
33 39 40 43 48 48 44 45 49 51 56 46 22 5 7 6 11 18 23 23 17 17 20 23 26 28 35 43 44 46 50 55 60 66 71 77 81 84 85 78 67 66 64 66
36 32 36 33 47 46 52 53 49 44 24 13 10 7 11 14 18 24 27 26 26 25 25 27 28 30 34 37 47 55 57 58 61 68 74 77 81 84 89 96 98 84 75 73
30 26 40 27 29 24 32 28 20 9 3 4 4 17 24 26 29 29 31 32 35 38 39 38 37 37 44 59 62 70 74 79 80 77 78 81 85 88 88 90 95 104 106 91
22 30 38 49 42 40 34 33 23 15 10 3 21 31 39 26 19 29 30 32 38 46 46 43 44 43 55 73 75 72 75 77 77 80 87 90 92 92 93 96 98 98 102 112
20 29 34 29 11 3 5 25 13 15 5 17 19 18 23 35 34 35 34 39 44 45 47 57 52 68 77 81 82 80 75 80 86 87 91 102 110 114 115 116 115 113 111 108
28 32 25 16 7 5 14 18 29 12 16 27 20 33 44 42 39 36 39 44 45 50 57 62 65 74 86 89 86 82 90 95 96 94 94 98 101 113 114 122 125 132 132 128
10 13 25 8 10 11 13 7 15 26 40 40 43 38 37 39 39 38 40 37 41 54 64 72 74 82 91 97 100 104 109 113 108 103 98 96 91 101 96 95 98 114 110 123
14 15 12 23 24 36 42 47 55 62 60 42 41 36 34 38 38 36 39 48 54 64 72 76 78 83 96 105 107 111 114 115 116 114 110 100 90 91 87 85 85 92 90 94
28 32 51 60 65 61 57 57 61 56 49 42 41 35 33 32 37 41 45 53 59 66 73 79 84 92 96 98 97 100 106 110 111 105 103 93 83 76 78 79 82 85 86 87
29 41 59 59 63 67 62 57 57 50 42 44 35 38 34 37 40 42 48 53 60 65 75 85 90 93 90 89 92 96 99 99 94 88 79 82 80 77 76 78 79 87 89 89
30 52 45 51 57 54 40 52 53 51 47 46 42 40 38 38 41 44 51 55 61 68 77 85 86 86 85 82 83 87 92 89 86 86 85 83 82 84 73 72 75 78 83 88
54 73 72 74 68 63 51 54 51 54 51 43 42 40 37 39 43 47 50 56 64 74 79 76 78 79 76 77 78 78 78 79 80 83 84 82 81 81 86 87 75 73 74 75
64 65 61 69 58 50 46 50 49 44 43 41 39 40 41 41 43 45 50 58 66 70 68 65 70 74 73 73 72 74 75 78 80 80 78 79 81 83 84 86 89 95 79 68
62 57 57 58 53 60 54 46 44 41 38 38 39 36 38 39 43 48 54 59 62 62 58 60 65 68 69 69 71 73 73 74 73 74 76 79 82 81 81 81 84 86 88 76
53 52 42 43 43 47 43 42 40 37 35 33 35 35 37 41 46 51 53 52 55 54 50 55 60 64 66 68 72 76 75 69 68 73 76 76 75 75 77 78 80 82 80 77
35 32 34 36 34 35 35 33 32 32 33 34 36 38 41 45 49 52 49 45 45 44 43 49 56 59 61 65 66 69 70 70 65 63 64 66 69 70 72 72 72 78 76 63
34 35 33 31 27 29 29 30 31 33 34 35 38 43 46 48 50 50 47 44 40 37 35 43 49 52 55 59 64 64 63 60 59 57 58 61 59 56 54 53 54 49 45 42
29 29 28 27 26 26 27 29 32 34 34 39 45 48 49 48 46 46 43 39 36 36 34 37 41 43 49 55 58 57 53 55 53 50 51 52 53 51 50 48 48 45 44 41
22 21 21 21 22 24 26 30 35 40 40 45 48 50 50 45 42 42 37 33 28 30 32 34 38 40 45 50 51 51 50 48 47 45 45 46 48 51 51 48 44 42 41 39
15 16 18 20 24 27 32 36 40 42 41 43 47 48 47 44 38 35 32 27 21 25 25 27 32 37 41 45 45 49 51 48 45 44 44 45 47 49 53 51 47 44 41 39
14 16 20 25 30 30 32 37 40 43 43 42 41 42 41 38 30 27 25 25 21 21 21 23 28 33 36 36 38 41 45 47 46 43 43 43 45 46 50 53 54 51 48 45
16 20 24 27 31 34 32 34 36 38 39 38 37 33 31 27 23 21 18 20 21 18 18 20 24 28 30 31 32 34 37 40 44 45 45 44 45 45 45 47 48 48 49 48
17 20 22 25 29 31 32 28 29 29 29 27 26 22 21 18 19 19 19 17 16 16 18 20 22 24 26 27 28 30 31 33 35 38 40 40 40 40 41 41 42 41 40 38
14 16 17 19 22 23 25 23 21 18 19 17 17 14 15 15 16 16 16 14 14 15 16 17 19 21 22 23 24 25 26 28 30 31 32 33 34 36 36 36 36 36 35 35
7 9 12 15 17 19 19 17 16 14 14 12 10 11 10 11 11 12 12 13 14 15 16 18 19 20 21 21 22 23 25 25 26 26 27 26 26 26 26 26 26 27 27 27
4 7 10 12 14 15 15 14 14 13 12 12 10 11 10 10 11 12 13 14 15 16 17 18 19 20 22 23 24 25 25 25 25 26 25 25 25 25 25 24 23 23 21 20
Wind_Direction_500mb
269 274 282 287 281 275 270 266 261 277 287 288 296 303 323 305 249 259 258 266 294 305 306 313 322 327 327 328 325 322 323 324 324 323 322 320 320 323 323 321 319 319 319 317
281 277 276 276 271 267 271 272 270 272 273 279 340 25 266 279 275 292 299 278 284 289 297 295 287 297 311 323 319 316 314 312 311 309 310 312 315 315 315 315 314 313 313 313
268 281 287 270 257 263 263 263 269 275 307 358 4 332 315 303 296 300 304 292 273 288 298 306 306 300 301 302 308 311 311 309 307 304 301 298 299 301 305 308 309 308 306 306
270 282 259 263 275 289 285 285 296 308 64 105 348 318 310 301 294 299 306 299 290 289 295 300 305 306 307 312 310 312 313 312 311 307 302 298 297 296 295 294 296 300 303 302
255 252 274 291 287 285 293 291 310 209 182 2 325 312 295 292 318 309 297 300 301 297 294 296 303 309 307 312 312 312 309 308 306 305 303 302 299 296 293 293 291 290 290 295
247 259 266 284 342 349 309 276 129 121 176 303 302 286 289 310 311 297 290 296 302 303 291 296 304 307 310 311 312 310 306 303 303 301 298 300 300 298 296 294 291 289 286 284
243 255 267 271 92 131 247 295 154 184 293 292 277 275 288 293 290 289 292 300 303 295 299 302 305 306 307 310 310 309 305 303 302 299 296 293 293 294 294 293 292 288 286 282
231 259 270 94 123 224 320 255 235 274 299 293 290 282 284 283 287 292 299 299 294 297 299 303 306 307 308 309 311 308 307 305 302 299 295 292 289 289 288 286 285 288 288 286
233 245 247 200 232 264 276 276 281 294 297 291 283 274 281 286 288 292 289 292 296 298 300 304 308 311 310 310 310 307 305 303 302 301 300 297 292 290 288 285 282 280 280 280
254 249 257 267 273 273 277 278 281 283 286 284 270 275 276 276 278 283 291 297 299 303 307 308 311 311 312 312 311 309 306 305 305 306 306 306 301 293 288 285 283 281 279 277
252 257 265 265 266 269 272 277 280 283 279 273 265 266 274 276 283 291 294 298 302 306 307 309 312 314 314 316 314 311 309 309 310 311 307 303 299 294 291 287 283 282 280 278
252 260 263 267 275 280 282 283 280 274 265 272 264 269 274 280 288 293 297 302 305 308 310 314 316 316 318 319 317 314 312 311 310 309 307 303 299 298 298 292 289 285 281 278
256 262 264 268 277 281 281 281 270 265 266 261 266 270 274 283 290 295 302 307 310 313 315 318 316 317 323 323 322 313 309 311 311 311 306 300 299 297 297 302 298 292 287 283
257 262 266 265 271 279 275 270 264 258 259 256 259 269 277 284 291 298 305 311 313 314 317 318 318 326 330 323 321 322 318 315 311 307 301 299 299 297 297 296 297 302 309 295
264 263 263 270 268 269 268 259 256 253 254 260 264 270 278 287 294 301 310 313 312 316 320 321 327 330 329 332 329 325 322 319 318 311 304 303 303 301 299 297 296 297 306 312
269 269 266 261 263 263 259 253 250 256 259 262 269 276 283 290 296 305 311 313 314 319 322 327 329 331 336 335 333 331 326 324 325 316 311 310 309 305 305 303 301 303 305 317
264 268 266 265 261 259 256 252 254 258 262 268 276 281 288 294 300 306 313 314 313 318 326 327 332 337 340 340 331 330 329 329 326 323 323 323 320 315 314 312 309 307 315 328
260 262 268 267 259 251 253 257 262 264 270 276 282 286 291 297 302 307 311 312 310 315 324 331 334 339 345 342 339 333 331 330 331 331 332 328 328 331 329 333 336 329 327 321
256 257 257 256 256 256 258 264 269 274 279 283 285 288 292 297 302 306 306 305 306 315 327 331 334 343 350 351 343 339 337 339 339 340 339 341 346 348 349 349 349 349 349 348
247 250 253 257 263 267 270 274 277 279 282 282 285 289 294 298 297 296 293 293 299 311 325 332 334 349 356 355 353 355 351 348 349 351 354 356 359 0 1 2 3 5 7 12
247 252 258 265 269 273 277 278 280 284 288 288 289 292 293 293 290 284 281 281 291 305 319 330 340 353 359 357 359 5 7 4 1 1 4 6 9 14 17 19 21 23 28 31
237 255 269 277 282 285 286 289 291 291 292 292 292 291 288 287 281 271 268 275 289 302 318 336 347 356 357 355 4 11 13 14 14 13 13 15 20 27 31 35 38 40 41 43
266 278 285 291 295 298 300 300 297 296 295 295 291 287 280 276 262 264 266 269 289 304 320 337 345 348 352 355 5 12 16 19 21 24 26 27 29 33 36 41 46 50 53 54
287 296 301 306 309 310 311 310 305 303 302 299 292 283 274 268 263 262 267 278 291 307 322 335 339 343 345 351 1 7 12 18 21 25 28 30 33 36 39 40 42 45 49 54
301 307 310 315 319 321 319 317 315 321 317 314 302 285 275 266 263 257 273 282 297 308 319 326 330 334 336 345 353 358 3 8 12 16 19 22 26 30 33 36 38 40 44 48
311 328 334 335 333 330 327 325 322 319 316 319 303 299 285 276 271 275 281 294 303 310 320 326 328 330 335 342 347 352 355 357 359 2 4 7 11 14 18 22 24 27 30 32
18 2 355 348 344 343 341 337 332 328 323 323 312 305 302 292 288 289 295 302 306 314 320 323 327 332 337 342 346 348 349 350 351 352 353 355 357 358 1 3 4 5 5 4
Wind_Speed_850mb
37 43 39 37 39 48 47 46 46 48 46 47 46 33 17 6 5 14 17 16 13 14 20 23 27 33 38 39 42 47 53 58 63 65 65 66 68 66 61 57 59 61 61 60
33 39 40 43 48 48 44 45 49 51 56 46 22 5 7 6 11 18 23 23 17 17 20 23 26 28 35 43 44 46 50 55 60 66 71 77 81 84 85 78 67 66 64 66
36 32 36 33 47 46 52 53 49 44 24 13 10 7 11 14 18 24 27 26 26 25 25 27 28 30 34 37 47 55 57 58 61 68 74 77 81 84 89 96 98 84 75 73
30 26 40 27 29 24 32 28 20 9 3 4 4 17 24 26 29 29 31 32 35 38 39 38 37 37 44 59 62 70 74 79 80 77 78 81 85 88 88 90 95 104 106 91
22 30 38 49 42 40 34 33 23 15 10 3 21 31 39 26 19 29 30 32 38 46 46 43 44 43 55 73 75 72 75 77 77 80 87 90 92 92 93 96 98 98 102 112
20 29 34 29 11 3 5 25 13 15 5 17 19 18 23 35 34 35 34 39 44 45 47 57 52 68 77 81 82 80 75 80 86 87 91 102 110 114 115 116 115 113 111 108
28 32 25 16 7 5 14 18 29 12 16 27 20 33 44 42 39 36 39 44 45 50 57 62 65 74 86 89 86 82 90 95 96 94 94 98 101 113 114 122 125 132 132 128
10 13 25 8 10 11 13 7 15 26 40 40 43 38 37 39 39 38 40 37 41 54 64 72 74 82 91 97 100 104 109 113 108 103 98 96 91 101 96 95 98 114 110 123
14 15 12 23 24 36 42 47 55 62 60 42 41 36 34 38 38 36 39 48 54 64 72 76 78 83 96 105 107 111 114 115 116 114 110 100 90 91 87 85 85 92 90 94
28 32 51 60 65 61 57 57 61 56 49 42 41 35 33 32 37 41 45 53 59 66 73 79 84 92 96 98 97 100 106 110 111 105 103 93 83 76 78 79 82 85 86 87
29 41 59 59 63 67 62 57 57 50 42 44 35 38 34 37 40 42 48 53 60 65 75 85 90 93 90 89 92 96 99 99 94 88 79 82 80 77 76 78 79 87 89 89
30 52 45 51 57 54 40 52 53 51 47 46 42 40 38 38 41 44 51 55 61 68 77 85 86 86 85 82 83 87 92 89 86 86 85 83 82 84 73 72 75 78 83 88
54 73 72 74 68 63 51 54 51 54 51 43 42 40 37 39 43 47 50 56 64 74 79 76 78 79 76 77 78 78 78 79 80 83 84 82 81 81 86 87 75 73 74 75
64 65 61 69 58 50 46 50 49 44 43 41 39 40 41 41 43 45 50 58 66 70 68 65 70 74 73 73 72 74 75 78 80 80 78 79 81 83 84 86 89 95 79 68
62 57 57 58 53 60 54 46 44 41 38 38 39 36 38 39 43 48 54 59 62 62 58 60 65 68 69 69 71 73 73 74 73 74 76 79 82 81 81 81 84 86 88 76
53 52 42 43 43 47 43 42 40 37 35 33 35 35 37 41 46 51 53 52 55 54 50 55 60 64 66 68 72 76 75 69 68 73 76 76 75 75 77 78 80 82 80 77
35 32 34 36 34 35 35 33 32 32 33 34 36 38 41 45 49 52 49 45 45 44 43 49 56 59 61 65 66 69 70 70 65 63 64 66 69 70 72 72 72 78 76 63
34 35 33 31 27 29 29 30 31 33 34 35 38 43 46 48 50 50 47 44 40 37 35 43 49 52 55 59 64 64 63 60 59 57 58 61 59 56 54 53 54 49 45 42
29 29 28 27 26 26 27 29 32 34 34 39 45 48 49 48 46 46 43 39 36 36 34 37 41 43 49 55 58 57 53 55 53 50 51 52 53 51 50 48 48 45 44 41
22 21 21 21 22 24 26 30 35 40 40 45 48 50 50 45 42 42 37 33 28 30 32 34 38 40 45 50 51 51 50 48 47 45 45 46 48 51 51 48 44 42 41 39
15 16 18 20 24 27 32 36 40 42 41 43 47 48 47 44 38 35 32 27 21 25 25 27 32 37 41 45 45 49 51 48 45 44 44 45 47 49 53 51 47 44 41 39
14 16 20 25 30 30 32 37 40 43 43 42 41 42 41 38 30 27 25 25 21 21 21 23 28 33 36 36 38 41 45 47 46 43 43 43 45 46 50 53 54 51 48 45
16 20 24 27 31 34 32 34 36 38 39 38 37 33 31 27 23 21 18 20 21 18 18 20 24 28 30 31 32 34 37 40 44 45 45 44 45 45 45 47 48 48 49 48
17 20 22 25 29 31 32 28 29 29 29 27 26 22 21 18 19 19 19 17 16 16 18 20 22 24 26 27 28 30 31 33 35 38 40 40 40 40 41 41 42 41 40 38
14 16 17 19 22 23 25 23 21 18 19 17 17 14 15 15 16 16 16 14 14 15 16 17 19 21 22 23 24 25 26 28 30 31 32 33 34 36 36 36 36 36 35 35
7 9 12 15 17 19 19 17 16 14 14 12 10 11 10 11 11 12 12 13 14 15 16 18 19 20 21 21 22 23 25 25 26 26 27 26 26 26 26 26 26 27 27 27
4 7 10 12 14 15 15 14 14 13 12 12 10 11 10 10 11 12 13 14 15 16 17 18 19 20 22 23 24 25 25 25 25 26 25 25 25 25 25 24 23 23 21 20
Wind_Direction_850mb
269 274 282 287 281 275 270 266 261 277 287 288 296 303 323 305 249 259 258 266 294 305 306 313 322 327 327 328 325 322 323 324 324 323 322 320 320 323 323 321 319 319 319 317
281 277 276 276 271 267 271 272 270 272 273 279 340 25 266 279 275 292 299 278 284 289 297 295 287 297 311 323 319 316 314 312 311 309 310 312 315 315 315 315 314 313 313 313
268 281 287 270 257 263 263 263 269 275 307 358 4 332 315 303 296 300 304 292 273 288 298 306 306 300 301 302 308 311 311 309 307 304 301 298 299 301 305 308 309 308 306 306
270 282 259 263 275 289 285 285 296 308 64 105 348 318 310 301 294 299 306 299 290 289 295 300 305 306 307 312 310 312 313 312 311 307 302 298 297 296 295 294 296 300 303 302
255 252 274 291 287 285 293 291 310 209 182 2 325 312 295 292 318 309 297 300 301 297 294 296 303 309 307 312 312 312 309 308 306 305 303 302 299 296 293 293 291 290 290 295
247 259 266 284 342 349 309 276 129 121 176 303 302 286 289 310 311 297 290 296 302 303 291 296 304 307 310 311 312 310 306 303 303 301 298 300 300 298 296 294 291 289 286 284
243 255 267 271 92 131 247 295 154 184 293 292 277 275 288 293 290 289 292 300 303 295 299 302 305 306 307 310 310 309 305 303 302 299 296 293 293 294 294 293 292 288 286 282
231 259 270 94 123 224 320 255 235 274 299 293 290 282 284 283 287 292 299 299 294 297 299 303 306 307 308 309 311 308 307 305 302 299 295 292 289 289 288 286 285 288 288 286
233 245 247 200 232 264 276 276 281 294 297 291 283 274 281 286 288 292 289 292 296 298 300 304 308 311 310 310 310 307 305 303 302 301 300 297 292 290 288 285 282 280 280 280
254 249 257 267 273 273 277 278 281 283 286 284 270 275 276 276 278 283 291 297 299 303 307 308 311 311 312 312 311 309 306 305 305 306 306 306 301 293 288 285 283 281 279 277
252 257 265 265 266 269 272 277 280 283 279 273 265 266 274 276 283 291 294 298 302 306 307 309 312 314 314 316 314 311 309 309 310 311 307 303 299 294 291 287 283 282 280 278
252 260 263 267 275 280 282 283 280 274 265 272 264 269 274 280 288 293 297 302 305 308 310 314 316 316 318 319 317 314 312 311 310 309 307 303 299 298 298 292 289 285 281 278
256 262 264 268 277 281 281 281 270 265 266 261 266 270 274 283 290 295 302 307 310 313 315 318 316 317 323 323 322 313 309 311 311 311 306 300 299 297 297 302 298 292 287 283
257 262 266 265 271 279 275 270 264 258 259 256 259 269 277 284 291 298 305 311 313 314 317 318 318 326 330 323 321 322 318 315 311 307 301 299 299 297 297 296 297 302 309 295
264 263 263 270 268 269 268 259 256 253 254 260 264 270 278 287 294 301 310 313 312 316 320 321 327 330 329 332 329 325 322 319 318 311 304 303 303 301 299 297 296 297 306 312
269 269 266 261 263 263 259 253 250 256 259 262 269 276 283 290 296 305 311 313 314 319 322 327 329 331 336 335 333 331 326 324 325 316 311 310 309 305 305 303 301 303 305 317
264 268 266 265 261 259 256 252 254 258 262 268 276 281 288 294 300 306 313 314 313 318 326 327 332 337 340 340 331 330 329 329 326 323 323 323 320 315 314 312 309 307 315 328
260 262 268 267 259 251 253 257 262 264 270 276 282 286 291 297 302 307 311 312 310 315 324 331 334 339 345 342 339 333 331 330 331 331 332 328 328 331 329 333 336 329 327 321
256 257 257 256 256 256 258 264 269 274 279 283 285 288 292 297 302 306 306 305 306 315 327 331 334 343 350 351 343 339 337 339 339 340 339 341 346 348 349 349 349 349 349 348
247 250 253 257 263 267 270 274 277 279 282 282 285 289 294 298 297 296 293 293 299 311 325 332 334 349 356 355 353 355 351 348 349 351 354 356 359 0 1 2 3 5 7 12
247 252 258 265 269 273 277 278 280 284 288 288 289 292 293 293 290 284 281 281 291 305 319 330 340 353 359 357 359 5 7 4 1 1 4 6 9 14 17 19 21 23 28 31
237 255 269 277 282 285 286 289 291 291 292 292 292 291 288 287 281 271 268 275 289 302 318 336 347 356 357 355 4 11 13 14 14 13 13 15 20 27 31 35 38 40 41 43
266 278 285 291 295 298 300 300 297 296 295 295 291 287 280 276 262 264 266 269 289 304 320 337 345 348 352 355 5 12 16 19 21 24 26 27 29 33 36 41 46 50 53 54
287 296 301 306 309 310 311 310 305 303 302 299 292 283 274 268 263 262 267 278 291 307 322 335 339 343 345 351 1 7 12 18 21 25 28 30 33 36 39 40 42 45 49 54
301 307 310 315 319 321 319 317 315 321 317 314 302 285 275 266 263 257 273 282 297 308 319 326 330 334 336 345 353 358 3 8 12 16 19 22 26 30 33 36 38 40 44 48
311 328 334 335 333 330 327 325 322 319 316 319 303 299 285 276 271 275 281 294 303 310 320 326 328 330 335 342 347 352 355 357 359 2 4 7 11 14 18 22 24 27 30 32
18 2 355 348 344 343 341 337 332 328 323 323 312 305 302 292 288 289 295 302 306 314 320 323 327 332 337 342 346 348 349 350 351 352 353 355 357 358 1 3 4 5 5 4